Location: Ferintosh
(52.7647°N, 112.9692°W)
Time: 19:26:24
(UTC+00:00)

A-11 Canister half - Pass Details

Date: 22 May 2024
Orbit: 1515 x 1685 km, 47.2° (Epoch: 12 June)

Event Time Altitude Azimuth Distance (km) Brightness Sun altitude
Rises 11:01:32 0° 241° (WSW) 4,747 - -3.4°
Exits shadow 11:02:30 - 240° (WSW) 4,439 10.8 -3.3°
Reaches altitude 10° 11:04:42 10° 238° (WSW) 3,743 10.4 -3.1°
Maximum altitude 11:13:48 56° 163° (SSE) 1,775 9.3 -2.0°
Drops below altitude 10° 11:22:43 10° 89° (E) 3,678 12.0 -1.0°
Sets 11:25:48 0° 86° (E) 4,659 12.7 -0.6°
